Retour au catalogue

ONEWEB-0181

ActifCommunicationsPO
NORAD 48230·PAYLOAD·🇬🇧 United Kingdom

Lancé Apr 25, 2021 depuis Vostochny Cosmodrome

Loading…

Prochains Passages (prochaines 24 heures)

TLE

FraisSource: CelesTrak SupGP

Époque: Sep 14, 2026, 16:57 UTC

1 48230C 21031W   26257.70675185 -.00002923  00000+0 -78944-2 0  2573
2 48230  87.8892 271.8656 0001587  95.9708   4.0827 13.14506547    13

Suivez ONEWEB-0181 en temps réel avec AllMySat

Download on the App Store